[[{"header":{"parameterUnit":"m.s-1","parameterCategory":1,"la1":30.2991,"la2":30.254,"lo1":-89.0895,"lo2":-89.0444,"dy":0.0017,"dx":0.0017,"nx":28,"ny":28,"refTime":"2024-08-08T09:00:00:Z","depth":0,"parameterNumber":2,"parameterNumberName":"U-component_of_WINDS"},"data":[0,0,0,0,0,0,0,0,0,0,0,0,0,0,0,0,0,0,0,0,0,0,0,0,0,0,0,0,0,0,0,0,0,0,0,0,0,0,0,0,0,0,0,0,0,0,0,0,0,0,0,0,0,0,0,0,0,0,2.6834,2.6834,0,2.6888,2.6889,2.689,2.6869,2.6868,2.6866,2.6865,2.6921,2.6923,2.6926,0,0,0,0,0,0,0,0,0,0,0,0,0,2.6711,2.6713,2.6834,2.6834,2.6835,2.6888,2.6889,2.689,2.6869,2.6868,2.6866,2.6865,2.692,2.6923,2.6926,0,0,0,0,0,0,0,0,0,0,0,0,0,2.6765,2.6714,2.6834,2.6831,2.6831,2.6888,2.6889,2.689,2.687,2.6868,2.6866,2.6864,2.6919,2.6923,2.6926,2.6988,0,0,2.6939,2.694,0,0,0,0,0,0,0,0,2.6762,2.6769,2.6831,2.6831,2.6832,2.687,2.6866,2.6923,2.687,2.6855,2.6865,2.6863,2.6905,2.691,2.6925,2.6991,2.6993,2.6939,2.6941,2.6943,2.6944,0,0,0,0,0,0,0,2.6758,2.6767,2.6855,2.6832,2.6832,2.6827,2.6833,2.6877,2.689,2.6856,2.6855,2.6862,2.6905,2.6921,2.6926,2.6994,2.6939,2.6942,2.6945,2.6946,2.7114,2.7116,0,0,0,0,0,0,2.6754,2.6764,2.6854,2.6857,2.6792,2.6831,2.6837,2.686,2.6889,2.6892,2.6863,2.686,2.6915,2.6921,2.6928,2.7001,2.6943,2.6947,2.6949,2.7112,2.7115,2.7117,0,0,0,0,0,0,2.6752,2.6762,2.6851,2.681,2.6821,2.6835,2.686,2.6862,2.6877,2.6895,2.6897,2.6877,2.6914,2.6922,2.6973,2.7003,2.6948,2.6952,2.711,2.7113,2.7116,2.715,0,0,0,0,0,0,2.6748,2.6762,2.6785,2.6811,2.6823,2.6896,2.6862,2.6864,2.6884,2.6881,2.6908,2.6911,2.6913,2.6968,2.6977,2.7008,2.6955,2.7107,2.7111,2.7115,2.7146,2.7154,2.7161,0,0,0,0,0,2.6744,2.6793,2.6787,2.6797,2.6853,2.6898,2.6905,2.6907,2.6887,2.6911,2.6922,2.691,2.6999,2.6973,2.6984,2.7016,2.7105,2.711,2.7114,2.7143,2.7152,2.716,0,0,0,0,0,0,2.677,2.6796,2.6789,2.6848,2.6871,2.6895,2.6925,2.6917,2.6946,2.6942,2.6943,2.6949,2.7002,2.7014,2.6985,2.7077,2.7049,2.7056,2.7067,2.7076,2.7083,2.7078,2.6958,0,0,0,0,0,2.6783,2.6817,2.6838,2.6888,2.69,2.691,2.693,2.693,2.6953,2.6963,2.6978,2.7001,2.7034,2.7056,2.7088,2.7149,2.7154,2.7176,2.7183,2.7189,2.7194,2.7227,2.7237,2.7132,2.7132,2.7132,0,0,2.6809,2.6827,2.6849,2.6893,2.6911,2.6946,2.6919,2.6957,2.6983,2.6969,2.7018,2.703,2.7056,2.7113,2.7138,2.7124,2.7225,2.7195,2.7199,2.7202,2.7233,2.7243,2.7251,2.7135,2.7135,2.7134,0,0,2.6874,2.6892,2.6935,2.6954,2.6981,2.6988,2.6999,2.7024,2.7031,2.7081,2.7071,2.7102,2.7159,2.7178,2.7195,2.7269,2.7259,2.728,2.7316,2.7348,2.7356,2.7363,2.7388,2.7398,2.7285,2.7286,2.7286,0,2.6903,2.6956,2.6958,2.6998,2.7017,2.7007,2.705,2.7068,2.7104,2.7118,2.7102,2.7174,2.7191,2.7251,2.7269,2.7284,2.7296,2.7276,2.7355,2.7362,2.7369,2.7393,2.7402,2.7288,2.7288,2.7287,2.7287,0,2.699,2.7027,2.7058,2.7094,2.7117,2.7159,2.7167,2.719,2.7188,2.7197,2.7248,2.7268,2.7303,2.7318,2.7316,2.7378,2.7369,2.7354,2.7325,2.7381,2.7403,2.7413,2.7291,2.729,2.729,2.7289,0,0,2.7072,2.7108,2.712,2.7136,2.7166,2.7194,2.7235,2.727,2.729,2.7316,2.735,2.7399,2.7386,2.7405,2.7406,2.7434,2.749,2.7416,2.7417,2.7428,2.7559,2.7568,2.7579,2.7484,2.7486,2.7488,2.7556,0,2.7138,2.721,2.7213,2.7279,2.7312,2.7303,2.7339,2.7361,2.7371,2.7401,2.7411,2.7446,2.7426,2.7438,2.7466,2.7477,2.7516,2.7473,2.7515,2.7516,2.7507,2.7591,2.7601,2.7664,2.7565,2.7566,2.7567,0,2.7225,2.7254,2.7323,2.7348,2.7362,2.7394,2.7426,2.7455,2.7481,2.7485,2.7508,2.7505,2.7546,2.7518,2.7575,2.7545,2.7563,2.7572,2.7574,2.7577,2.7544,2.7594,2.7685,2.7693,2.7582,2.758,2.7579,0,2.7277,2.7333,2.738,2.7395,2.7425,2.7448,2.7462,2.7485,2.7506,2.7535,2.7548,2.7581,2.7598,2.7624,2.763,2.7609,2.7687,2.7659,2.7691,2.7691,2.7706,2.7705,2.78,2.7721,2.7721,2.7721,2.7721,0,2.735,2.7392,2.7404,2.7433,2.748,2.7484,2.753,2.7542,2.7564,2.7595,2.759,2.7619,2.7626,2.7657,2.7662,2.7708,2.7716,2.7721,2.7721,2.7721,2.772,2.7731,2.7726,2.7723,2.7723,2.7722,2.7722,0,2.7414,2.7424,2.7475,2.7501,2.7508,2.7541,2.7563,2.7591,2.76,2.764,2.765,2.7665,2.7701,2.771,2.7753,2.7756,2.781,2.7807,2.7802,2.7801,2.7832,2.7829,2.7936,2.795,2.7863,2.7864,2.7865,0,2.7459,2.7491,2.752,2.7541,2.7556,2.7589,2.761,2.7616,2.7638,2.767,2.7694,2.773,2.7758,2.7817,2.7831,2.7864,2.7861,2.7896,2.7866,2.7864,2.786,2.7857,2.786,2.7901,2.7902,2.7903,2.7904,0,2.7538,2.7541,2.7572,2.7605,2.763,2.7656,2.7681,2.7698,2.7707,2.7733,2.777,2.7792,2.7836,2.7872,2.7905,2.7919,2.7913,2.7914,2.7923,2.7921,2.7916,2.7917,2.7816,2.7911,2.791,2.7909,2.7909,2.7909,2.7593,2.7621,2.7645,2.768,2.7699,2.7722,2.775,2.7763,2.7794,2.783,2.7832,2.7872,2.7897,2.7941,2.7957,2.7989,2.7978,2.7991,2.7994,2.7997,2.7999,2.7912,2.7995,2.7995,2.7995,2.7995,2.7995,0,2.767,2.7686,2.7717,2.7752,2.7779,2.7772,2.7799,2.7822,2.7857,2.7881,2.791,2.7952,2.7986,2.8004,2.8038,2.806,2.8058,2.8068,2.8066,2.8069,2.8008,2.7996,2.8069,2.8069,2.8069,2.8069,2.8069,2.8069,2.7713,2.7759,2.7766,2.7822,2.7837,2.7876,2.7892,2.7914,2.7933,2.798,2.8009,2.802,2.8042,2.8077,2.8108,2.8113,2.8125,2.8137,2.8139,2.8081,2.8073,2.8066,2.8055,2.814,2.814,2.8198,2.8198,2.8199]},{"header":{"parameterUnit":"m.s-1","parameterCategory":1,"la1":30.2991,"la2":30.254,"lo1":-89.0895,"lo2":-89.0444,"dy":0.0017,"dx":0.0017,"nx":28,"ny":28,"refTime":"2024-08-08T09:00:00:Z","depth":0,"parameterNumber":3,"parameterNumberName":"V-component_of_WINDS"},"data":[0,0,0,0,0,0,0,0,0,0,0,0,0,0,0,0,0,0,0,0,0,0,0,0,0,0,0,0,0,0,0,0,0,0,0,0,0,0,0,0,0,0,0,0,0,0,0,0,0,0,0,0,0,0,0,0,0,0,-2.5988,-2.5989,0,-2.6084,-2.6085,-2.6086,-2.6078,-2.6076,-2.6075,-2.6073,-2.617,-2.6174,-2.6178,0,0,0,0,0,0,0,0,0,0,0,0,0,-2.5796,-2.58,-2.5988,-2.5989,-2.599,-2.6083,-2.6085,-2.6086,-2.6078,-2.6076,-2.6074,-2.6073,-2.6169,-2.6173,-2.6178,0,0,0,0,0,0,0,0,0,0,0,0,0,-2.5884,-2.5801,-2.5987,-2.5997,-2.5999,-2.6083,-2.6085,-2.6086,-2.6078,-2.6076,-2.6074,-2.6072,-2.6167,-2.6173,-2.6179,-2.6259,0,0,-2.6197,-2.6199,0,0,0,0,0,0,0,0,-2.5879,-2.5891,-2.5995,-2.5997,-2.5999,-2.6066,-2.6053,-2.6144,-2.6079,-2.6048,-2.6073,-2.6071,-2.6137,-2.6145,-2.6168,-2.6263,-2.6268,-2.6197,-2.6201,-2.6203,-2.6205,0,0,0,0,0,0,0,-2.5873,-2.5887,-2.6026,-2.5996,-2.5999,-2.5996,-2.6006,-2.607,-2.6104,-2.6051,-2.605,-2.6062,-2.6138,-2.6163,-2.617,-2.6269,-2.6197,-2.6202,-2.6206,-2.6208,-2.6434,-2.6437,0,0,0,0,0,0,-2.5865,-2.5882,-2.6022,-2.6028,-2.5933,-2.6002,-2.6013,-2.6047,-2.6103,-2.6109,-2.6064,-2.6061,-2.6154,-2.6164,-2.6174,-2.6271,-2.6203,-2.6209,-2.6212,-2.6432,-2.6435,-2.6438,0,0,0,0,0,0,-2.5861,-2.5878,-2.6019,-2.5955,-2.5973,-2.6007,-2.6045,-2.605,-2.6075,-2.6113,-2.6119,-2.6083,-2.6152,-2.6165,-2.6238,-2.6274,-2.6212,-2.6217,-2.6429,-2.6433,-2.6436,-2.6466,0,0,0,0,0,0,-2.5855,-2.5876,-2.5907,-2.5956,-2.5976,-2.6082,-2.6048,-2.6053,-2.6085,-2.6083,-2.6132,-2.6138,-2.6152,-2.6229,-2.6244,-2.6281,-2.6222,-2.6426,-2.6431,-2.6435,-2.6462,-2.647,-2.6478,0,0,0,0,0,-2.5849,-2.5912,-2.5909,-2.5926,-2.6016,-2.6084,-2.6095,-2.611,-2.6088,-2.6119,-2.6144,-2.6137,-2.6268,-2.6237,-2.6253,-2.6293,-2.6424,-2.6429,-2.6435,-2.6459,-2.6469,-2.6477,0,0,0,0,0,0,-2.5866,-2.5918,-2.5916,-2.5997,-2.6036,-2.6082,-2.6122,-2.612,-2.6166,-2.6162,-2.6177,-2.6189,-2.6261,-2.6284,-2.6248,-2.6373,-2.6343,-2.6352,-2.6355,-2.6365,-2.6373,-2.6366,-2.6226,0,0,0,0,0,-2.5879,-2.593,-2.5973,-2.604,-2.606,-2.6088,-2.6118,-2.6125,-2.6167,-2.6183,-2.6213,-2.6252,-2.6303,-2.6335,-2.6384,-2.6465,-2.6476,-2.6501,-2.6509,-2.6515,-2.6522,-2.6567,-2.6578,-2.6456,-2.6456,-2.6456,0,0,-2.5907,-2.5942,-2.5973,-2.6045,-2.6076,-2.6128,-2.6102,-2.6158,-2.6196,-2.6191,-2.6261,-2.6285,-2.633,-2.6407,-2.6443,-2.6429,-2.6559,-2.6522,-2.6527,-2.6531,-2.6574,-2.6585,-2.6596,-2.646,-2.6459,-2.6458,0,0,-2.5984,-2.6016,-2.6075,-2.6107,-2.6155,-2.6173,-2.6188,-2.6235,-2.625,-2.6321,-2.6318,-2.6364,-2.645,-2.6482,-2.651,-2.6599,-2.6594,-2.6615,-2.6655,-2.6698,-2.6708,-2.6717,-2.6748,-2.6759,-2.6622,-2.6622,-2.6622,0,-2.6013,-2.6092,-2.6106,-2.6163,-2.6194,-2.6192,-2.6252,-2.6282,-2.6343,-2.6365,-2.6348,-2.6456,-2.6487,-2.6571,-2.6593,-2.6616,-2.6632,-2.6609,-2.6705,-2.6714,-2.6722,-2.6753,-2.6765,-2.6624,-2.6624,-2.6624,-2.6624,0,-2.6124,-2.6178,-2.6221,-2.628,-2.6316,-2.6374,-2.6397,-2.6431,-2.6436,-2.6456,-2.6527,-2.6564,-2.6619,-2.664,-2.6645,-2.6726,-2.6715,-2.6702,-2.6672,-2.6736,-2.6765,-2.6776,-2.6627,-2.6627,-2.6626,-2.6625,0,0,-2.6215,-2.6281,-2.6297,-2.6323,-2.6376,-2.6418,-2.6476,-2.6531,-2.656,-2.6602,-2.665,-2.6723,-2.6711,-2.6743,-2.6751,-2.6789,-2.6857,-2.6771,-2.6773,-2.6786,-2.6948,-2.6957,-2.697,-2.6855,-2.6857,-2.6859,-2.6944,0,-2.6297,-2.64,-2.6414,-2.6505,-2.6555,-2.6554,-2.6604,-2.6642,-2.6662,-2.6707,-2.6728,-2.678,-2.676,-2.6779,-2.6817,-2.6841,-2.689,-2.6835,-2.6899,-2.6901,-2.6887,-2.6985,-2.6996,-2.7074,-2.6955,-2.6957,-2.6958,0,-2.6407,-2.6452,-2.6548,-2.6593,-2.6615,-2.666,-2.6711,-2.6754,-2.6797,-2.6808,-2.6843,-2.6847,-2.6906,-2.6874,-2.6956,-2.6918,-2.6945,-2.6961,-2.6964,-2.697,-2.6933,-2.6994,-2.71,-2.7112,-2.6976,-2.6975,-2.6974,0,-2.6463,-2.6548,-2.6616,-2.6639,-2.6694,-2.6725,-2.675,-2.679,-2.6822,-2.6866,-2.6887,-2.6938,-2.6965,-2.7004,-2.7022,-2.6997,-2.7102,-2.7071,-2.7113,-2.7112,-2.7135,-2.7133,-2.7246,-2.7153,-2.7153,-2.7152,-2.7152,0,-2.6553,-2.6611,-2.6642,-2.6684,-2.6749,-2.6765,-2.6829,-2.6852,-2.6888,-2.6934,-2.6936,-2.6979,-2.6999,-2.7045,-2.7059,-2.7124,-2.7137,-2.7147,-2.715,-2.7147,-2.7146,-2.7165,-2.7159,-2.7156,-2.7155,-2.7154,-2.7154,0,-2.6627,-2.665,-2.6724,-2.677,-2.6782,-2.6828,-2.6868,-2.6908,-2.6927,-2.6985,-2.7,-2.703,-2.7085,-2.7106,-2.7172,-2.7181,-2.7256,-2.7255,-2.7242,-2.7243,-2.7283,-2.7279,-2.7412,-2.743,-2.7325,-2.7326,-2.7327,0,-2.6683,-2.6727,-2.6778,-2.6809,-2.6835,-2.6885,-2.6917,-2.6935,-2.6969,-2.702,-2.7054,-2.7108,-2.7153,-2.7239,-2.7267,-2.7317,-2.7317,-2.736,-2.7324,-2.732,-2.7317,-2.7314,-2.7318,-2.7366,-2.7368,-2.7368,-2.7369,0,-2.6779,-2.6788,-2.6835,-2.6887,-2.6925,-2.6966,-2.7006,-2.7031,-2.7055,-2.7093,-2.7148,-2.7183,-2.725,-2.7304,-2.7356,-2.738,-2.7379,-2.738,-2.7393,-2.739,-2.738,-2.7385,-2.726,-2.7377,-2.7376,-2.7376,-2.7375,-2.7375,-2.6846,-2.6885,-2.6927,-2.6979,-2.7011,-2.7049,-2.7089,-2.7113,-2.716,-2.7217,-2.7224,-2.7284,-2.7324,-2.7394,-2.7421,-2.7467,-2.7456,-2.7473,-2.7478,-2.7482,-2.7485,-2.7373,-2.7477,-2.7476,-2.7476,-2.7476,-2.7476,0,-2.6942,-2.6969,-2.7017,-2.7073,-2.7114,-2.7109,-2.7153,-2.7187,-2.724,-2.7278,-2.7322,-2.7385,-2.7437,-2.7469,-2.7521,-2.7552,-2.7553,-2.7565,-2.7563,-2.7568,-2.7492,-2.7476,-2.7564,-2.7564,-2.7564,-2.7564,-2.7564,-2.7564,-2.6997,-2.7064,-2.7078,-2.716,-2.7187,-2.7245,-2.7271,-2.7305,-2.7335,-2.7407,-2.745,-2.747,-2.7506,-2.7561,-2.7608,-2.7616,-2.7635,-2.7648,-2.7655,-2.7583,-2.7574,-2.7565,-2.755,-2.7652,-2.7652,-2.7728,-2.7728,-2.7729]}]]